This demonstration page uses our WeatherBlox Daily Observations layout. Learn more.

Left ArrowRight Arrow

Hourly Observations for February 20, 2015

Temp ( °F °C ) Dew Point ( °F °C ) Humidity (%) Winds ( mph kmh ) Pressure ( in mb ) Visibility ( mi km ) Precip ( " mm )
12:53 am 00:53 Clear -11 -23.9 -16 -26.7 78 78 N N/A 30.47 1032 10 16.0934 N/A
1:53 am 01:53 Clear -12 -24.4 -18 -27.8 73 73 N N/A 30.47 1032 10 16.0934 N/A
2:53 am 02:53 Clear -14 -25.6 -19 -28.3 78 78 W 3 6 30.48 1032 10 16.0934 N/A
3:53 am 03:53 Clear -15 -26.1 -19 -28.3 82 82 N N/A 30.48 1032 10 16.0934 N/A
4:53 am 04:53 Clear -15 -26.1 -19 -28.3 82 82 N N/A 30.49 1033 10 16.0934 N/A
5:53 am 05:53 Clear -15 -26.1 -21 -29.4 74 74 N N/A 30.5 1033 10 16.0934 N/A
6:53 am 06:53 Clear -14 -25.6 -19 -28.3 78 78 N N/A 30.5 1033 9 14.48406 N/A
7:53 am 07:53 Sunny -13 -25 -17 -27.2 82 82 N N/A 30.49 1032 9 14.48406 N/A
8:53 am 08:53 Sunny -2 -18.9 -7 -21.7 79 79 E 3 6 30.5 1033 7 11.26538 N/A
9:53 am 09:53 Sunny 5 -15 -7 -21.7 57 57 VRB 6 9 30.49 1033 10 16.0934 N/A
10:53 am 10:53 Sunny 9 -12.8 -8 -22.2 46 46 SE 8 13 30.48 1032 10 16.0934 N/A
11:53 am 11:53 Mostly Sunny 12 -11.1 -7 -21.7 42 42 SSE 9 15 30.49 1033 10 16.0934 N/A
12:53 pm 12:53 Sunny 13 -10.6 -6 -21.1 42 42 VRB 3 6 30.45 1031 10 16.0934 N/A
1:53 pm 13:53 Mostly Sunny 16 -8.9 -7 -21.7 35 35 SSE 9 15 30.39 1029 10 16.0934 N/A
2:53 pm 14:53 Mostly Sunny 17 -8.3 -6 -21.1 35 35 S 9 15 30.37 1028 10 16.0934 N/A
3:53 pm 15:53 Cloudy 18 -7.8 -4 -20 37 37 S 8 13 30.35 1028 10 16.0934 N/A
4:53 pm 16:53 Cloudy 18 -7.8 -4 -20 37 37 VRB 6 9 30.33 1027 10 16.0934 N/A
5:53 pm 17:53 Cloudy 18 -7.8 -5 -20.6 35 35 S 7 11 30.32 1027 10 16.0934 N/A
6:53 pm 18:53 Cloudy 17 -8.3 -3 -19.4 41 41 SE 5 7 30.28 1025 10 16.0934 N/A
7:53 pm 19:53 Cloudy 18 -7.8 -1 -18.3 43 43 SE 7 11 30.27 1025 10 16.0934 N/A
8:53 pm 20:53 Cloudy 17 -8.3 -1 -18.3 45 45 SSE 3 6 30.24 1024 10 16.0934 N/A
9:53 pm 21:53 Cloudy 19 -7.2 -1 -18.3 41 41 N N/A 30.2 1023 10 16.0934 N/A
10:53 pm 22:53 Cloudy 20 -6.7 N/A 41 41 SSE 3 6 30.17 1022 10 16.0934 N/A
11:50 pm 23:50 Cloudy 19 -7 5 -15 53 53 E 5 7 30.15 1021 10 16.0934 N/A
11:53 pm 23:53 Cloudy 20 -6.7 5 -15 52 52 E 5 7 30.15 1021 10 16.0934 N/A

Powered by AerisWeather